Location: Newark
(13.8117°N, 3.6025°W)
Time: 02:06:00
(UTC+00:00)

Vanguard 2 - Pass Details

Date: 03 September 2019
Orbit: 554 x 2937 km, 32.9° (Epoch: 17 October)

Event Time Altitude Azimuth Distance (km) Brightness Sun altitude
Rises 15:02:40 0° 306° (NW) 3,502 11.4 48.1°
Reaches altitude 10° 15:04:47 10° 308° (NW) 2,770 11.0 47.6°
Maximum altitude 15:11:37 72° 33° (NNE) 1,461 9.5 45.9°
Drops below altitude 10° 15:23:25 10° 116° (ESE) 4,610 11.2 43.1°
Sets 15:27:57 0° 118° (ESE) 5,969 11.7 42.0°
